{"data":{"norad_id":68931,"intl_designator":"2026-098N","name":"KUIPER-00416","alt_names":[],"object_type":"PAYLOAD","status":"ACTIVE","operator":null,"country":"US","launch_date":"2026-04-30","launch_site_code":"FRGUI","launch_vehicle":null,"mission":null,"orbit_class":"UNKNOWN","rcs_meters":null,"size_class":null,"mass_kg":null,"dimensions":null,"purposes":[],"wikipedia_slug":null,"has_3d_model":false,"image_url":null,"decayed_at":null,"tle_current":{"epoch":"2026-05-25T02:16:34.081824Z","epoch_age_seconds":77576,"freshness":"FRESH","line1":"1 68931U 26098N   26145.09483891  .00022618  00000+0  63440-3 0  9990","line2":"2 68931  51.8737 178.7437 0001404  97.4479 262.6667 15.36486085  3808","mean_motion":15.36486085,"eccentricity":0.0001404,"inclination_deg":51.8737,"raan_deg":178.7437,"arg_perigee_deg":97.4479,"mean_anomaly_deg":262.6667,"bstar":0.0006344,"rev_number":380,"period_min":93.720341111973,"perigee_km":455.55038768616,"apogee_km":457.46955655593,"semimajor_km":6834.646972121,"source":"CELESTRAK","updated_at":"2026-05-25T13:38:08.794958Z"}}}